| time (UTC) | temp F | wind direction | speed knots | gust knots | rain 1hr in | rain 24hr in | rain mn in | humidity % | barometer mb |
| 20260902134504 | 64 | 182 | 2.6 | 4.3 | 0.00 | 0.00 | 0.00 | 77 | 1022.5 |
| 20260902134004 | 64 | 182 | 2.6 | 4.3 | 0.00 | 0.00 | 0.00 | 77 | 1022.5 |
| 20260902133504 | 64 | 182 | 2.6 | 4.3 | 0.00 | 0.00 | 0.00 | 77 | 1022.6 |
| 20260902133003 | 64 | 182 | 2.6 | 4.3 | 0.00 | 0.00 | 0.00 | 77 | 1022.5 |
| 20260902132503 | 64 | 182 | 2.6 | 4.3 | 0.00 | 0.00 | 0.00 | 77 | 1022.3 |
| 20260902132004 | 64 | 182 | 2.6 | 4.3 | 0.00 | 0.00 | 0.00 | 77 | 1022.3 |
| 20260902131503 | 64 | 182 | 2.6 | 4.3 | 0.00 | 0.00 | 0.00 | 77 | 1022.4 |
| 20260902131003 | 64 | 182 | 2.6 | 4.3 | 0.00 | 0.00 | 0.00 | 77 | 1022.3 |
| 20260902130504 | 64 | 182 | 2.6 | 4.3 | 0.00 | 0.00 | 0.00 | 77 | 1022.3 |
| 20260902083504 | 69 | 199 | 7.0 | 9.6 | 0.00 | 0.00 | 0.00 | 64 | 1022.4 |
| 20260902081504 | 69 | 199 | 7.0 | 9.6 | 0.00 | 0.00 | 0.00 | 64 | 1022.4 |
| 20260902081003 | 69 | 199 | 7.0 | 9.6 | 0.00 | 0.00 | 0.00 | 64 | 1022.6 |
| 20260902075004 | 69 | 199 | 7.0 | 9.6 | 0.00 | 0.00 | 0.00 | 64 | 1022.4 |
| 20260902074504 | 69 | 199 | 7.0 | 9.6 | 0.00 | 0.00 | 0.00 | 64 | 1022.5 |
| 20260902074004 | 69 | 199 | 7.0 | 9.6 | 0.00 | 0.00 | 0.00 | 64 | 1022.5 |
| 20260902041504 | 70 | 180 | 3.5 | 3.5 | 0.00 | 0.00 | 0.00 | 60 | 1022.5 |
| 20260902041004 | 70 | 180 | 3.5 | 3.5 | 0.00 | 0.00 | 0.00 | 60 | 1022.3 |
| 20260902040504 | 70 | 180 | 3.5 | 3.5 | 0.00 | 0.00 | 0.00 | 60 | 1022.5 |
| 20260902040004 | 70 | 180 | 3.5 | 3.5 | 0.00 | 0.00 | 0.00 | 60 | 1022.5 |
| 20260902035504 | 70 | 180 | 3.5 | 3.5 | 0.00 | 0.00 | 0.00 | 60 | 1022.3 |
| 20260902035004 | 70 | 180 | 3.5 | 3.5 | 0.00 | 0.00 | 0.00 | 60 | 1022.4 |
| 20260902034503 | 70 | 180 | 3.5 | 3.5 | 0.00 | 0.00 | 0.00 | 60 | 1022.4 |
| 20260902034003 | 70 | 180 | 3.5 | 3.5 | 0.00 | 0.00 | 0.00 | 60 | 1022.3 |
| 20260902033504 | 70 | 180 | 3.5 | 3.5 | 0.00 | 0.00 | 0.00 | 60 | 1022.3 |
| 20260902033003 | 70 | 180 | 3.5 | 3.5 | 0.00 | 0.00 | 0.00 | 60 | 1022.3 |
| 20260902032503 | 70 | 180 | 3.5 | 3.5 | 0.00 | 0.00 | 0.00 | 60 | 1021.9 |
| 20260902032004 | 70 | 180 | 3.5 | 3.5 | 0.00 | 0.00 | 0.00 | 60 | 1021.9 |
| 20260902030004 | 72 | 213 | 9.6 | 10.4 | 0.00 | 0.00 | 0.00 | 54 | 1021.8 |
| 20260902025503 | 72 | 213 | 9.6 | 10.4 | 0.00 | 0.00 | 0.00 | 54 | 1022.0 |
| 20260902025003 | 72 | 213 | 9.6 | 10.4 | 0.00 | 0.00 | 0.00 | 54 | 1021.6 |
| 20260902024504 | 72 | 213 | 9.6 | 10.4 | 0.00 | 0.00 | 0.00 | 54 | 1021.6 |
| 20260902024003 | 72 | 213 | 9.6 | 10.4 | 0.00 | 0.00 | 0.00 | 54 | 1021.5 |
| 20260902023503 | 72 | 213 | 9.6 | 10.4 | 0.00 | 0.00 | 0.00 | 54 | 1021.7 |
| 20260902023004 | 72 | 213 | 9.6 | 10.4 | 0.00 | 0.00 | 0.00 | 54 | 1021.6 |
| 20260902022503 | 72 | 213 | 9.6 | 10.4 | 0.00 | 0.00 | 0.00 | 54 | 1021.6 |
| 20260902022003 | 72 | 213 | 9.6 | 10.4 | 0.00 | 0.00 | 0.00 | 54 | 1021.6 |
| 20260902021504 | 72 | 213 | 9.6 | 10.4 | 0.00 | 0.00 | 0.00 | 54 | 1021.8 |
| 20260902021003 | 72 | 213 | 9.6 | 10.4 | 0.00 | 0.00 | 0.00 | 54 | 1021.7 |
| 20260902020503 | 72 | 213 | 9.6 | 10.4 | 0.00 | 0.00 | 0.00 | 54 | 1021.7 |
| 20260902020004 | 73 | 190 | 12.2 | 13.0 | 0.00 | 0.00 | 0.00 | 53 | 1021.5 |
| 20260902015504 | 73 | 190 | 12.2 | 13.0 | 0.00 | 0.00 | 0.00 | 53 | 1021.3 |
| 20260902015004 | 73 | 203 | 9.6 | 9.6 | 0.00 | 0.00 | 0.00 | 53 | 1021.5 |
| 20260902014504 | 73 | 214 | 8.7 | 9.6 | 0.00 | 0.00 | 0.00 | 52 | 1021.4 |
| 20260902014004 | 73 | 210 | 6.1 | 13.9 | 0.00 | 0.00 | 0.00 | 52 | 1021.4 |
| 20260902013504 | 74 | 207 | 10.4 | 12.2 | 0.00 | 0.00 | 0.00 | 50 | 1021.4 |
| 20260902013004 | 74 | 207 | 10.4 | 12.2 | 0.00 | 0.00 | 0.00 | 50 | 1021.5 |
| 20260902012504 | 75 | 234 | 7.0 | 9.6 | 0.00 | 0.00 | 0.00 | 47 | 1021.5 |
| 20260902012004 | 75 | 234 | 7.0 | 9.6 | 0.00 | 0.00 | 0.00 | 47 | 1021.4 |
| 20260902011504 | 76 | 202 | 10.4 | 13.9 | 0.00 | 0.00 | 0.00 | 45 | 1021.6 |
| 20260902011003 | 76 | 202 | 10.4 | 13.9 | 0.00 | 0.00 | 0.00 | 45 | 1021.6 |
| 20260902010504 | 76 | 202 | 10.4 | 13.9 | 0.00 | 0.00 | 0.00 | 45 | 1021.7 |
| 20260902010004 | 76 | 205 | 6.1 | 11.3 | 0.00 | 0.00 | 0.00 | 46 | 1021.6 |
| 20260902005503 | 76 | 215 | 7.8 | 13.9 | 0.00 | 0.00 | 0.00 | 46 | 1021.7 |
| 20260902005003 | 76 | 220 | 13.0 | 17.4 | 0.00 | 0.00 | 0.00 | 45 | 1021.6 |
| 20260902004504 | 76 | 181 | 11.3 | 13.0 | 0.00 | 0.00 | 0.00 | 44 | 1021.6 |
| 20260902004003 | 76 | 205 | 13.0 | 13.9 | 0.00 | 0.00 | 0.00 | 44 | 1021.6 |
| 20260902003503 | 77 | 194 | 9.6 | 16.5 | 0.00 | 0.00 | 0.00 | 42 | 1021.5 |
| 20260902003004 | 78 | 212 | 5.2 | 7.0 | 0.00 | 0.00 | 0.00 | 44 | 1021.7 |
| 20260902002504 | 77 | 210 | 8.7 | 14.8 | 0.00 | 0.00 | 0.00 | 44 | 1021.7 |
| 20260902002003 | 78 | 205 | 7.0 | 11.3 | 0.00 | 0.00 | 0.00 | 45 | 1021.7 |
| 20260902001504 | 77 | 212 | 7.8 | 15.6 | 0.00 | 0.00 | 0.00 | 46 | 1021.8 |
| 20260902001004 | 77 | 215 | 7.0 | 7.0 | 0.00 | 0.00 | 0.00 | 48 | 1021.7 |
| 20260902000504 | 78 | 237 | 5.2 | 6.1 | 0.00 | 0.00 | 0.00 | 46 | 1021.7 |
| 20260902000004 | 78 | 178 | 7.0 | 14.8 | 0.00 | 0.00 | 0.00 | 46 | 1021.6 |
| 20260901235503 | 78 | 254 | 7.0 | 13.0 | 0.00 | 0.00 | 0.00 | 44 | 1021.7 |
| 20260901235004 | 77 | 216 | 2.6 | 7.8 | 0.00 | 0.00 | 0.00 | 45 | 1021.6 |
| 20260901234504 | 78 | 200 | 13.0 | 13.0 | 0.00 | 0.00 | 0.00 | 44 | 1021.8 |
| 20260901234003 | 79 | 221 | 8.7 | 9.6 | 0.00 | 0.00 | 0.00 | 43 | 1021.7 |
| 20260901233503 | 79 | 221 | 8.7 | 9.6 | 0.00 | 0.00 | 0.00 | 43 | 1021.7 |
| 20260901233003 | 77 | 219 | 9.6 | 14.8 | 0.00 | 0.00 | 0.00 | 46 | 1022.0 |
| 20260901232504 | 77 | 222 | 10.4 | 17.4 | 0.00 | 0.00 | 0.00 | 45 | 1022.0 |
| 20260901232004 | 78 | 214 | 13.0 | 18.2 | 0.00 | 0.00 | 0.00 | 43 | 1021.8 |
| 20260901231504 | 78 | 229 | 10.4 | 17.4 | 0.00 | 0.00 | 0.00 | 43 | 1021.7 |
| 20260901231004 | 78 | 196 | 7.0 | 14.8 | 0.00 | 0.00 | 0.00 | 43 | 1021.8 |
| 20260901230504 | 78 | 228 | 12.2 | 20.9 | 0.00 | 0.00 | 0.00 | 41 | 1021.9 |
| 20260901230004 | 79 | 260 | 5.2 | 8.7 | 0.00 | 0.00 | 0.00 | 39 | 1021.9 |
| 20260901224004 | 79 | 283 | 13.0 | 19.1 | 0.00 | 0.00 | 0.00 | 43 | 1021.9 |
| 20260901223504 | 78 | 214 | 3.5 | 10.4 | 0.00 | 0.00 | 0.00 | 44 | 1022.1 |
| 20260901223004 | 78 | 254 | 11.3 | 14.8 | 0.00 | 0.00 | 0.00 | 43 | 1022.0 |
| 20260901221003 | 80 | 188 | 10.4 | 12.2 | 0.00 | 0.00 | 0.00 | 40 | 1021.9 |
| 20260901220503 | 79 | 220 | 11.3 | 11.3 | 0.00 | 0.00 | 0.00 | 40 | 1022.0 |
| 20260901220004 | 80 | 213 | 5.2 | 9.6 | 0.00 | 0.00 | 0.00 | 39 | 1022.1 |
| 20260901214004 | 80 | 190 | 8.7 | 8.7 | 0.00 | 0.00 | 0.00 | 43 | 1022.1 |
| 20260901213504 | 80 | 190 | 8.7 | 8.7 | 0.00 | 0.00 | 0.00 | 43 | 1022.3 |
| 20260901213004 | 79 | 149 | 13.0 | 21.7 | 0.00 | 0.00 | 0.00 | 43 | 1022.3 |
| 20260901211003 | 76 | 157 | 3.5 | 4.3 | 0.00 | 0.00 | 0.00 | 54 | 1022.4 |
| 20260901210503 | 76 | 157 | 3.5 | 4.3 | 0.00 | 0.00 | 0.00 | 54 | 1022.3 |
| 20260901210004 | 76 | 157 | 3.5 | 4.3 | 0.00 | 0.00 | 0.00 | 54 | 1022.6 |
| 20260901204004 | 76 | 227 | 7.8 | 11.3 | 0.00 | 0.00 | 0.00 | 46 | 1022.8 |
| 20260901203504 | 76 | 227 | 7.8 | 11.3 | 0.00 | 0.00 | 0.00 | 46 | 1022.7 |
| 20260901203004 | 79 | 154 | 9.6 | 13.0 | 0.00 | 0.00 | 0.00 | 48 | 1022.6 |
| 20260901202503 | 79 | 154 | 9.6 | 13.0 | 0.00 | 0.00 | 0.00 | 48 | 1022.6 |
| 20260901202003 | 79 | 154 | 9.6 | 13.0 | 0.00 | 0.00 | 0.00 | 48 | 1022.7 |
| 20260901201504 | 79 | 154 | 9.6 | 13.0 | 0.00 | 0.00 | 0.00 | 48 | 1022.7 |
| 20260901195503 | 77 | 135 | 14.8 | 20.0 | 0.00 | 0.00 | 0.00 | 51 | 1023.0 |
| 20260901195003 | 77 | 135 | 14.8 | 20.0 | 0.00 | 0.00 | 0.00 | 51 | 1023.0 |
| 20260901194504 | 77 | 135 | 14.8 | 20.0 | 0.00 | 0.00 | 0.00 | 51 | 1022.8 |
| 20260901194004 | 77 | 135 | 14.8 | 20.0 | 0.00 | 0.00 | 0.00 | 51 | 1022.9 |
| 20260901193504 | 77 | 135 | 14.8 | 20.0 | 0.00 | 0.00 | 0.00 | 51 | 1022.9 |
| 20260901193004 | 77 | 135 | 14.8 | 20.0 | 0.00 | 0.00 | 0.00 | 51 | 1023.0 |
| 20260901192503 | 77 | 135 | 14.8 | 20.0 | 0.00 | 0.00 | 0.00 | 51 | 1023.1 |
| 20260901192003 | 77 | 135 | 14.8 | 20.0 | 0.00 | 0.00 | 0.00 | 51 | 1023.1 |
| 20260901191505 | 76 | 180 | 10.4 | 13.9 | 0.00 | 0.00 | 0.00 | 52 | 1023.0 |
| 20260901191004 | 76 | 180 | 10.4 | 13.9 | 0.00 | 0.00 | 0.00 | 52 | 1023.4 |
| 20260901190504 | 77 | 180 | 6.1 | 7.8 | 0.00 | 0.00 | 0.00 | 50 | 1023.4 |
| 20260901190004 | 77 | 180 | 6.1 | 7.8 | 0.00 | 0.00 | 0.00 | 50 | 1023.4 |
| 20260901185503 | 75 | 192 | 11.3 | 14.8 | 0.00 | 0.00 | 0.00 | 53 | 1023.7 |
| 20260901185004 | 76 | 196 | 10.4 | 13.9 | 0.00 | 0.00 | 0.00 | 54 | 1023.5 |
| 20260901184504 | 77 | 158 | 6.1 | 10.4 | 0.00 | 0.00 | 0.00 | 53 | 1023.6 |
| 20260901184003 | 76 | 147 | 13.9 | 14.8 | 0.00 | 0.00 | 0.00 | 54 | 1023.4 |
| 20260901183504 | 77 | 150 | 1.7 | 6.1 | 0.00 | 0.00 | 0.00 | 51 | 1023.5 |
| 20260901183004 | 78 | 218 | 5.2 | 11.3 | 0.00 | 0.00 | 0.00 | 52 | 1023.4 |
| 20260901180004 | 75 | 180 | 6.1 | 7.0 | 0.00 | 0.00 | 0.00 | 57 | 1023.8 |
| 20260901175503 | 75 | 180 | 6.1 | 7.0 | 0.00 | 0.00 | 0.00 | 57 | 1023.8 |
| 20260901175003 | 75 | 180 | 6.1 | 7.0 | 0.00 | 0.00 | 0.00 | 57 | 1023.8 |
| 20260901174504 | 75 | 180 | 6.1 | 7.0 | 0.00 | 0.00 | 0.00 | 57 | 1023.6 |
| 20260901174004 | 75 | 180 | 6.1 | 7.0 | 0.00 | 0.00 | 0.00 | 57 | 1023.5 |
| 20260901173504 | 75 | 180 | 6.1 | 7.0 | 0.00 | 0.00 | 0.00 | 57 | 1023.5 |
| 20260901173004 | 75 | 180 | 6.1 | 7.0 | 0.00 | 0.00 | 0.00 | 57 | 1023.4 |
| 20260901170003 | 75 | 210 | 4.3 | 4.3 | 0.00 | 0.00 | 0.00 | 57 | 1023.4 |
| 20260901165503 | 75 | 185 | 5.2 | 6.1 | 0.00 | 0.00 | 0.00 | 56 | 1023.4 |
| 20260901165004 | 73 | 207 | 5.2 | 9.6 | 0.00 | 0.00 | 0.00 | 61 | 1023.6 |
| 20260901164504 | 73 | 202 | 7.8 | 9.6 | 0.00 | 0.00 | 0.00 | 60 | 1023.4 |
| 20260901164004 | 73 | 202 | 7.8 | 9.6 | 0.00 | 0.00 | 0.00 | 60 | 1023.2 |
| 20260901163504 | 73 | 202 | 7.8 | 9.6 | 0.00 | 0.00 | 0.00 | 60 | 1023.1 |
| 20260901163003 | 73 | 202 | 7.8 | 9.6 | 0.00 | 0.00 | 0.00 | 60 | 1023.1 |
| 20260901162503 | 75 | 137 | 2.6 | 2.6 | 0.00 | 0.00 | 0.00 | 60 | 1023.2 |
| 20260901162003 | 75 | 137 | 2.6 | 2.6 | 0.00 | 0.00 | 0.00 | 60 | 1023.4 |
| 20260901160004 | 70 | 122 | 2.6 | 3.5 | 0.00 | 0.00 | 0.00 | 67 | 1022.9 |
| 20260901155504 | 70 | 122 | 2.6 | 3.5 | 0.00 | 0.00 | 0.00 | 67 | 1023.1 |
| 20260901155005 | 70 | 122 | 2.6 | 3.5 | 0.00 | 0.00 | 0.00 | 67 | 1023.0 |
| 20260901153503 | 70 | 122 | 2.6 | 3.5 | 0.00 | 0.00 | 0.00 | 67 | 1023.0 |
| 20260901153004 | 70 | 122 | 2.6 | 3.5 | 0.00 | 0.00 | 0.00 | 67 | 1023.0 |
| 20260901152504 | 70 | 122 | 2.6 | 3.5 | 0.00 | 0.00 | 0.00 | 67 | 1022.9 |
| 20260901152003 | 70 | 122 | 2.6 | 3.5 | 0.00 | 0.00 | 0.00 | 67 | 1022.9 |
| 20260901151503 | 70 | 122 | 2.6 | 3.5 | 0.00 | 0.00 | 0.00 | 67 | 1022.9 |
| 20260901151004 | 70 | 220 | 3.5 | 3.5 | 0.00 | 0.00 | 0.00 | 65 | 1023.0 |
| 20260901150504 | 70 | 118 | 2.6 | 4.3 | 0.00 | 0.00 | 0.00 | 65 | 1022.9 |
| 20260901150004 | 70 | 133 | 5.2 | 5.2 | 0.00 | 0.00 | 0.00 | 64 | 1023.0 |
| 20260901145504 | 70 | 110 | 4.3 | 4.3 | 0.00 | 0.00 | 0.00 | 62 | 1023.0 |
| 20260901145004 | 70 | 110 | 4.3 | 4.3 | 0.00 | 0.00 | 0.00 | 62 | 1023.0 |
| 20260901144504 | 69 | 86 | 1.7 | 2.6 | 0.00 | 0.00 | 0.00 | 62 | 1022.9 |
| 20260901144004 | 68 | 130 | 3.5 | 4.3 | 0.00 | 0.00 | 0.00 | 63 | 1023.0 |
| 20260901143503 | 68 | 130 | 3.5 | 4.3 | 0.00 | 0.00 | 0.00 | 63 | 1023.0 |
| 20260901143003 | 69 | 118 | 2.6 | 3.5 | 0.00 | 0.00 | 0.00 | 62 | 1022.9 |
| 20260901142504 | 68 | 70 | 1.7 | 2.6 | 0.00 | 0.00 | 0.00 | 63 | 1022.7 |
| 20260901142004 | 68 | 185 | 3.5 | 3.5 | 0.00 | 0.00 | 0.00 | 62 | 1022.7 |